<?xml version="1.0" encoding="UTF-8" standalone="no" ?>
<gpx xmlns="http://www.topografix.com/GPX/1/1" xmlns:xsi="http://www.w3.org/2001/XMLSchema-instance" xsi:schemaLocation="http://www.topografix.com/GPX/1/1 http://www.topografix.com/GPX/1/1/gpx.xsd" version="1.1" creator="VisuGPX - https://www.visugpx.com">
  <metadata>
    <name>Petit 9Km</name>
  </metadata>
  <trk>
    <name><![CDATA[Petit 9Km]]></name>
    <trkseg>
      <trkpt lat="46.80958" lon="-0.56396">
        <ele>203.4</ele>
        <time>2022-10-17T14:49:34Z</time>
      </trkpt>
      <trkpt lat="46.80956" lon="-0.56419">
        <ele>204.5</ele>
        <time>2022-10-17T14:49:34Z</time>
      </trkpt>
      <trkpt lat="46.80967" lon="-0.56421">
        <ele>205</ele>
        <time>2022-10-17T14:49:34Z</time>
      </trkpt>
      <trkpt lat="46.80975" lon="-0.56413">
        <ele>205.2</ele>
        <time>2022-10-17T14:49:34Z</time>
      </trkpt>
      <trkpt lat="46.8098" lon="-0.56422">
        <ele>205.9</ele>
        <time>2022-10-17T14:49:34Z</time>
      </trkpt>
      <trkpt lat="46.80986" lon="-0.56422">
        <ele>206.5</ele>
        <time>2022-10-17T14:49:34Z</time>
      </trkpt>
      <trkpt lat="46.80999" lon="-0.5641">
        <ele>207.6</ele>
        <time>2022-10-17T14:49:34Z</time>
      </trkpt>
      <trkpt lat="46.81003" lon="-0.56409">
        <ele>207.8</ele>
        <time>2022-10-17T14:49:34Z</time>
      </trkpt>
      <trkpt lat="46.81009" lon="-0.56413">
        <ele>208.2</ele>
        <time>2022-10-17T14:49:34Z</time>
      </trkpt>
      <trkpt lat="46.81017" lon="-0.56415">
        <ele>208.6</ele>
        <time>2022-10-17T14:49:34Z</time>
      </trkpt>
      <trkpt lat="46.81023" lon="-0.56413">
        <ele>208.7</ele>
        <time>2022-10-17T14:49:34Z</time>
      </trkpt>
      <trkpt lat="46.81026" lon="-0.5642">
        <ele>208.9</ele>
        <time>2022-10-17T14:49:34Z</time>
      </trkpt>
      <trkpt lat="46.81042" lon="-0.56407">
        <ele>208.8</ele>
        <time>2022-10-17T14:49:34Z</time>
      </trkpt>
      <trkpt lat="46.8106" lon="-0.56387">
        <ele>208.9</ele>
        <time>2022-10-17T14:49:34Z</time>
      </trkpt>
      <trkpt lat="46.8108" lon="-0.56355">
        <ele>208.7</ele>
        <time>2022-10-17T14:49:34Z</time>
      </trkpt>
      <trkpt lat="46.81099" lon="-0.56326">
        <ele>208.4</ele>
        <time>2022-10-17T14:49:34Z</time>
      </trkpt>
      <trkpt lat="46.81107" lon="-0.56313">
        <ele>208.2</ele>
        <time>2022-10-17T14:49:34Z</time>
      </trkpt>
      <trkpt lat="46.81184" lon="-0.5625">
        <ele>205.8</ele>
        <time>2022-10-17T14:49:34Z</time>
      </trkpt>
      <trkpt lat="46.81152" lon="-0.56158">
        <ele>204.2</ele>
        <time>2022-10-17T14:49:34Z</time>
      </trkpt>
      <trkpt lat="46.81193" lon="-0.5612">
        <ele>201.4</ele>
        <time>2022-10-17T14:49:34Z</time>
      </trkpt>
      <trkpt lat="46.81209" lon="-0.56106">
        <ele>200.3</ele>
        <time>2022-10-17T14:49:34Z</time>
      </trkpt>
      <trkpt lat="46.81219" lon="-0.56097">
        <ele>199.6</ele>
        <time>2022-10-17T14:49:34Z</time>
      </trkpt>
      <trkpt lat="46.81238" lon="-0.56068">
        <ele>197.9</ele>
        <time>2022-10-17T14:49:34Z</time>
      </trkpt>
      <trkpt lat="46.81291" lon="-0.56086">
        <ele>195.6</ele>
        <time>2022-10-17T14:49:34Z</time>
      </trkpt>
      <trkpt lat="46.81372" lon="-0.56134">
        <ele>192.6</ele>
        <time>2022-10-17T14:49:34Z</time>
      </trkpt>
      <trkpt lat="46.81389" lon="-0.56187">
        <ele>192.7</ele>
        <time>2022-10-17T14:49:34Z</time>
      </trkpt>
      <trkpt lat="46.81394" lon="-0.56188">
        <ele>193</ele>
        <time>2022-10-17T14:49:34Z</time>
      </trkpt>
      <trkpt lat="46.81436" lon="-0.56133">
        <ele>192.4</ele>
        <time>2022-10-17T14:49:34Z</time>
      </trkpt>
      <trkpt lat="46.81455" lon="-0.56124">
        <ele>192.1</ele>
        <time>2022-10-17T14:49:34Z</time>
      </trkpt>
      <trkpt lat="46.81466" lon="-0.56124">
        <ele>192.3</ele>
        <time>2022-10-17T14:49:34Z</time>
      </trkpt>
      <trkpt lat="46.81491" lon="-0.56136">
        <ele>192.8</ele>
        <time>2022-10-17T14:49:34Z</time>
      </trkpt>
      <trkpt lat="46.81519" lon="-0.56156">
        <ele>192.7</ele>
        <time>2022-10-17T14:49:34Z</time>
      </trkpt>
      <trkpt lat="46.81546" lon="-0.56193">
        <ele>193.9</ele>
        <time>2022-10-17T14:49:34Z</time>
      </trkpt>
      <trkpt lat="46.81561" lon="-0.56204">
        <ele>194.4</ele>
        <time>2022-10-17T14:49:34Z</time>
      </trkpt>
      <trkpt lat="46.8157" lon="-0.56208">
        <ele>194.5</ele>
        <time>2022-10-17T14:49:34Z</time>
      </trkpt>
      <trkpt lat="46.81578" lon="-0.56201">
        <ele>194.2</ele>
        <time>2022-10-17T14:49:34Z</time>
      </trkpt>
      <trkpt lat="46.81614" lon="-0.56115">
        <ele>197.7</ele>
        <time>2022-10-17T14:49:34Z</time>
      </trkpt>
      <trkpt lat="46.81675" lon="-0.56025">
        <ele>200.3</ele>
        <time>2022-10-17T14:49:34Z</time>
      </trkpt>
      <trkpt lat="46.81692" lon="-0.56013">
        <ele>200.9</ele>
        <time>2022-10-17T14:49:34Z</time>
      </trkpt>
      <trkpt lat="46.81715" lon="-0.56003">
        <ele>201.7</ele>
        <time>2022-10-17T14:49:34Z</time>
      </trkpt>
      <trkpt lat="46.8176" lon="-0.55973">
        <ele>204.3</ele>
        <time>2022-10-17T14:49:34Z</time>
      </trkpt>
      <trkpt lat="46.81767" lon="-0.5596">
        <ele>204.6</ele>
        <time>2022-10-17T14:49:34Z</time>
      </trkpt>
      <trkpt lat="46.81839" lon="-0.55945">
        <ele>207.2</ele>
        <time>2022-10-17T14:49:34Z</time>
      </trkpt>
      <trkpt lat="46.81881" lon="-0.55951">
        <ele>208.2</ele>
        <time>2022-10-17T14:49:34Z</time>
      </trkpt>
      <trkpt lat="46.81882" lon="-0.55955">
        <ele>208.3</ele>
        <time>2022-10-17T14:49:34Z</time>
      </trkpt>
      <trkpt lat="46.81882" lon="-0.55955">
        <ele>208.3</ele>
        <time>2022-10-17T14:49:34Z</time>
      </trkpt>
      <trkpt lat="46.81932" lon="-0.56135">
        <ele>209.6</ele>
        <time>2022-10-17T14:49:34Z</time>
      </trkpt>
      <trkpt lat="46.81932" lon="-0.56155">
        <ele>209.6</ele>
        <time>2022-10-17T14:49:34Z</time>
      </trkpt>
      <trkpt lat="46.8195" lon="-0.56364">
        <ele>210.7</ele>
        <time>2022-10-17T14:49:34Z</time>
      </trkpt>
      <trkpt lat="46.81963" lon="-0.56466">
        <ele>210.8</ele>
        <time>2022-10-17T14:49:34Z</time>
      </trkpt>
      <trkpt lat="46.81973" lon="-0.56474">
        <ele>211</ele>
        <time>2022-10-17T14:49:34Z</time>
      </trkpt>
      <trkpt lat="46.82016" lon="-0.56461">
        <ele>209.2</ele>
        <time>2022-10-17T14:49:34Z</time>
      </trkpt>
      <trkpt lat="46.82018" lon="-0.56478">
        <ele>209.4</ele>
        <time>2022-10-17T14:49:34Z</time>
      </trkpt>
      <trkpt lat="46.82018" lon="-0.56478">
        <ele>209.4</ele>
        <time>2022-10-17T14:49:34Z</time>
      </trkpt>
      <trkpt lat="46.8202" lon="-0.56502">
        <ele>209.3</ele>
        <time>2022-10-17T14:49:34Z</time>
      </trkpt>
      <trkpt lat="46.82021" lon="-0.56543">
        <ele>210</ele>
        <time>2022-10-17T14:49:34Z</time>
      </trkpt>
      <trkpt lat="46.82004" lon="-0.5669">
        <ele>211</ele>
        <time>2022-10-17T14:49:34Z</time>
      </trkpt>
      <trkpt lat="46.81973" lon="-0.56819">
        <ele>212</ele>
        <time>2022-10-17T14:49:34Z</time>
      </trkpt>
      <trkpt lat="46.81935" lon="-0.56921">
        <ele>211.4</ele>
        <time>2022-10-17T14:49:34Z</time>
      </trkpt>
      <trkpt lat="46.81897" lon="-0.56998">
        <ele>211.2</ele>
        <time>2022-10-17T14:49:34Z</time>
      </trkpt>
      <trkpt lat="46.81878" lon="-0.57043">
        <ele>212.1</ele>
        <time>2022-10-17T14:49:34Z</time>
      </trkpt>
      <trkpt lat="46.81854" lon="-0.57081">
        <ele>212.6</ele>
        <time>2022-10-17T14:49:34Z</time>
      </trkpt>
      <trkpt lat="46.81834" lon="-0.57099">
        <ele>212.6</ele>
        <time>2022-10-17T14:49:34Z</time>
      </trkpt>
      <trkpt lat="46.818" lon="-0.5715">
        <ele>213.2</ele>
        <time>2022-10-17T14:49:34Z</time>
      </trkpt>
      <trkpt lat="46.8178" lon="-0.57187">
        <ele>213.8</ele>
        <time>2022-10-17T14:49:34Z</time>
      </trkpt>
      <trkpt lat="46.81705" lon="-0.57298">
        <ele>215.2</ele>
        <time>2022-10-17T14:49:34Z</time>
      </trkpt>
      <trkpt lat="46.81701" lon="-0.57304">
        <ele>215</ele>
        <time>2022-10-17T14:49:34Z</time>
      </trkpt>
      <trkpt lat="46.81701" lon="-0.57304">
        <ele>215</ele>
        <time>2022-10-17T14:49:34Z</time>
      </trkpt>
      <trkpt lat="46.81705" lon="-0.57298">
        <ele>215.2</ele>
        <time>2022-10-17T14:49:34Z</time>
      </trkpt>
      <trkpt lat="46.81821" lon="-0.57422">
        <ele>208.8</ele>
        <time>2022-10-17T14:49:34Z</time>
      </trkpt>
      <trkpt lat="46.8185" lon="-0.57445">
        <ele>207.4</ele>
        <time>2022-10-17T14:49:34Z</time>
      </trkpt>
      <trkpt lat="46.81884" lon="-0.57452">
        <ele>206.5</ele>
        <time>2022-10-17T14:49:34Z</time>
      </trkpt>
      <trkpt lat="46.8194" lon="-0.57491">
        <ele>204.1</ele>
        <time>2022-10-17T14:49:34Z</time>
      </trkpt>
      <trkpt lat="46.81954" lon="-0.57512">
        <ele>203.5</ele>
        <time>2022-10-17T14:49:34Z</time>
      </trkpt>
      <trkpt lat="46.81979" lon="-0.57561">
        <ele>204.5</ele>
        <time>2022-10-17T14:49:34Z</time>
      </trkpt>
      <trkpt lat="46.82001" lon="-0.57613">
        <ele>207</ele>
        <time>2022-10-17T14:49:34Z</time>
      </trkpt>
      <trkpt lat="46.82023" lon="-0.57669">
        <ele>209.1</ele>
        <time>2022-10-17T14:49:34Z</time>
      </trkpt>
      <trkpt lat="46.82022" lon="-0.57671">
        <ele>209.3</ele>
        <time>2022-10-17T14:49:34Z</time>
      </trkpt>
      <trkpt lat="46.82022" lon="-0.57671">
        <ele>209.3</ele>
        <time>2022-10-17T14:49:34Z</time>
      </trkpt>
      <trkpt lat="46.81995" lon="-0.5771">
        <ele>210.2</ele>
        <time>2022-10-17T14:49:34Z</time>
      </trkpt>
      <trkpt lat="46.8198" lon="-0.57745">
        <ele>210.4</ele>
        <time>2022-10-17T14:49:34Z</time>
      </trkpt>
      <trkpt lat="46.81979" lon="-0.57782">
        <ele>210.6</ele>
        <time>2022-10-17T14:49:34Z</time>
      </trkpt>
      <trkpt lat="46.81985" lon="-0.57822">
        <ele>212</ele>
        <time>2022-10-17T14:49:34Z</time>
      </trkpt>
      <trkpt lat="46.81991" lon="-0.57855">
        <ele>213.5</ele>
        <time>2022-10-17T14:49:34Z</time>
      </trkpt>
      <trkpt lat="46.81996" lon="-0.57938">
        <ele>216.5</ele>
        <time>2022-10-17T14:49:34Z</time>
      </trkpt>
      <trkpt lat="46.82024" lon="-0.58096">
        <ele>222.1</ele>
        <time>2022-10-17T14:49:34Z</time>
      </trkpt>
      <trkpt lat="46.82023" lon="-0.58114">
        <ele>222.2</ele>
        <time>2022-10-17T14:49:34Z</time>
      </trkpt>
      <trkpt lat="46.82018" lon="-0.58124">
        <ele>222.3</ele>
        <time>2022-10-17T14:49:34Z</time>
      </trkpt>
      <trkpt lat="46.82011" lon="-0.58129">
        <ele>222.6</ele>
        <time>2022-10-17T14:49:34Z</time>
      </trkpt>
      <trkpt lat="46.81955" lon="-0.58141">
        <ele>224.6</ele>
        <time>2022-10-17T14:49:34Z</time>
      </trkpt>
      <trkpt lat="46.81927" lon="-0.58157">
        <ele>225.4</ele>
        <time>2022-10-17T14:49:34Z</time>
      </trkpt>
      <trkpt lat="46.81902" lon="-0.58179">
        <ele>226.4</ele>
        <time>2022-10-17T14:49:34Z</time>
      </trkpt>
      <trkpt lat="46.81889" lon="-0.58198">
        <ele>227</ele>
        <time>2022-10-17T14:49:34Z</time>
      </trkpt>
      <trkpt lat="46.81884" lon="-0.58213">
        <ele>226.8</ele>
        <time>2022-10-17T14:49:34Z</time>
      </trkpt>
      <trkpt lat="46.8188" lon="-0.58209">
        <ele>226.7</ele>
        <time>2022-10-17T14:49:34Z</time>
      </trkpt>
      <trkpt lat="46.81836" lon="-0.58247">
        <ele>226</ele>
        <time>2022-10-17T14:49:34Z</time>
      </trkpt>
      <trkpt lat="46.81696" lon="-0.58322">
        <ele>228.6</ele>
        <time>2022-10-17T14:49:34Z</time>
      </trkpt>
      <trkpt lat="46.81668" lon="-0.58345">
        <ele>229.4</ele>
        <time>2022-10-17T14:49:34Z</time>
      </trkpt>
      <trkpt lat="46.81629" lon="-0.58381">
        <ele>229.5</ele>
        <time>2022-10-17T14:49:34Z</time>
      </trkpt>
      <trkpt lat="46.81622" lon="-0.58401">
        <ele>229.8</ele>
        <time>2022-10-17T14:49:34Z</time>
      </trkpt>
      <trkpt lat="46.8161" lon="-0.58419">
        <ele>230.1</ele>
        <time>2022-10-17T14:49:34Z</time>
      </trkpt>
      <trkpt lat="46.81596" lon="-0.58449">
        <ele>231.1</ele>
        <time>2022-10-17T14:49:34Z</time>
      </trkpt>
      <trkpt lat="46.81587" lon="-0.58483">
        <ele>231.9</ele>
        <time>2022-10-17T14:49:34Z</time>
      </trkpt>
      <trkpt lat="46.81579" lon="-0.58527">
        <ele>232</ele>
        <time>2022-10-17T14:49:34Z</time>
      </trkpt>
      <trkpt lat="46.81565" lon="-0.58567">
        <ele>232</ele>
        <time>2022-10-17T14:49:34Z</time>
      </trkpt>
      <trkpt lat="46.81544" lon="-0.586">
        <ele>231.4</ele>
        <time>2022-10-17T14:49:34Z</time>
      </trkpt>
      <trkpt lat="46.81494" lon="-0.58652">
        <ele>230.5</ele>
        <time>2022-10-17T14:49:34Z</time>
      </trkpt>
      <trkpt lat="46.8147" lon="-0.58665">
        <ele>230.1</ele>
        <time>2022-10-17T14:49:34Z</time>
      </trkpt>
      <trkpt lat="46.81373" lon="-0.58711">
        <ele>226.2</ele>
        <time>2022-10-17T14:49:34Z</time>
      </trkpt>
      <trkpt lat="46.81366" lon="-0.58713">
        <ele>225.7</ele>
        <time>2022-10-17T14:49:34Z</time>
      </trkpt>
      <trkpt lat="46.81366" lon="-0.58713">
        <ele>225.7</ele>
        <time>2022-10-17T14:49:34Z</time>
      </trkpt>
      <trkpt lat="46.81365" lon="-0.58713">
        <ele>225.6</ele>
        <time>2022-10-17T14:49:34Z</time>
      </trkpt>
      <trkpt lat="46.81365" lon="-0.58689">
        <ele>226.3</ele>
        <time>2022-10-17T14:49:34Z</time>
      </trkpt>
      <trkpt lat="46.81375" lon="-0.58593">
        <ele>227.3</ele>
        <time>2022-10-17T14:49:34Z</time>
      </trkpt>
      <trkpt lat="46.81375" lon="-0.58552">
        <ele>228</ele>
        <time>2022-10-17T14:49:34Z</time>
      </trkpt>
      <trkpt lat="46.81374" lon="-0.58545">
        <ele>227.9</ele>
        <time>2022-10-17T14:49:34Z</time>
      </trkpt>
      <trkpt lat="46.81373" lon="-0.58526">
        <ele>227.9</ele>
        <time>2022-10-17T14:49:34Z</time>
      </trkpt>
      <trkpt lat="46.81373" lon="-0.5847">
        <ele>228.9</ele>
        <time>2022-10-17T14:49:34Z</time>
      </trkpt>
      <trkpt lat="46.81375" lon="-0.58428">
        <ele>228.7</ele>
        <time>2022-10-17T14:49:34Z</time>
      </trkpt>
      <trkpt lat="46.81376" lon="-0.58396">
        <ele>228.5</ele>
        <time>2022-10-17T14:49:34Z</time>
      </trkpt>
      <trkpt lat="46.81377" lon="-0.58371">
        <ele>228.6</ele>
        <time>2022-10-17T14:49:34Z</time>
      </trkpt>
      <trkpt lat="46.81383" lon="-0.58342">
        <ele>228.9</ele>
        <time>2022-10-17T14:49:34Z</time>
      </trkpt>
      <trkpt lat="46.81386" lon="-0.58332">
        <ele>229</ele>
        <time>2022-10-17T14:49:34Z</time>
      </trkpt>
      <trkpt lat="46.81397" lon="-0.58304">
        <ele>229.6</ele>
        <time>2022-10-17T14:49:34Z</time>
      </trkpt>
      <trkpt lat="46.81408" lon="-0.58279">
        <ele>230</ele>
        <time>2022-10-17T14:49:34Z</time>
      </trkpt>
      <trkpt lat="46.81421" lon="-0.58246">
        <ele>230.2</ele>
        <time>2022-10-17T14:49:34Z</time>
      </trkpt>
      <trkpt lat="46.81434" lon="-0.58215">
        <ele>230.6</ele>
        <time>2022-10-17T14:49:34Z</time>
      </trkpt>
      <trkpt lat="46.81437" lon="-0.58204">
        <ele>230.7</ele>
        <time>2022-10-17T14:49:34Z</time>
      </trkpt>
      <trkpt lat="46.81438" lon="-0.58193">
        <ele>230.8</ele>
        <time>2022-10-17T14:49:34Z</time>
      </trkpt>
      <trkpt lat="46.8144" lon="-0.58181">
        <ele>230.9</ele>
        <time>2022-10-17T14:49:34Z</time>
      </trkpt>
      <trkpt lat="46.8144" lon="-0.58173">
        <ele>231</ele>
        <time>2022-10-17T14:49:34Z</time>
      </trkpt>
      <trkpt lat="46.81438" lon="-0.58149">
        <ele>231.7</ele>
        <time>2022-10-17T14:49:34Z</time>
      </trkpt>
      <trkpt lat="46.81425" lon="-0.58092">
        <ele>232.7</ele>
        <time>2022-10-17T14:49:34Z</time>
      </trkpt>
      <trkpt lat="46.81416" lon="-0.58036">
        <ele>234.7</ele>
        <time>2022-10-17T14:49:34Z</time>
      </trkpt>
      <trkpt lat="46.81402" lon="-0.57992">
        <ele>235.3</ele>
        <time>2022-10-17T14:49:34Z</time>
      </trkpt>
      <trkpt lat="46.81386" lon="-0.57959">
        <ele>236</ele>
        <time>2022-10-17T14:49:34Z</time>
      </trkpt>
      <trkpt lat="46.81338" lon="-0.57904">
        <ele>236.8</ele>
        <time>2022-10-17T14:49:34Z</time>
      </trkpt>
      <trkpt lat="46.81311" lon="-0.57859">
        <ele>236.2</ele>
        <time>2022-10-17T14:49:34Z</time>
      </trkpt>
      <trkpt lat="46.813" lon="-0.57822">
        <ele>235.9</ele>
        <time>2022-10-17T14:49:34Z</time>
      </trkpt>
      <trkpt lat="46.81286" lon="-0.57783">
        <ele>235.1</ele>
        <time>2022-10-17T14:49:34Z</time>
      </trkpt>
      <trkpt lat="46.81286" lon="-0.57783">
        <ele>235.1</ele>
        <time>2022-10-17T14:49:34Z</time>
      </trkpt>
      <trkpt lat="46.81286" lon="-0.57783">
        <ele>235.1</ele>
        <time>2022-10-17T14:49:34Z</time>
      </trkpt>
      <trkpt lat="46.81281" lon="-0.57787">
        <ele>235</ele>
        <time>2022-10-17T14:49:34Z</time>
      </trkpt>
      <trkpt lat="46.81262" lon="-0.57796">
        <ele>234.8</ele>
        <time>2022-10-17T14:49:34Z</time>
      </trkpt>
      <trkpt lat="46.81244" lon="-0.57813">
        <ele>234.8</ele>
        <time>2022-10-17T14:49:34Z</time>
      </trkpt>
      <trkpt lat="46.81233" lon="-0.57827">
        <ele>234.4</ele>
        <time>2022-10-17T14:49:34Z</time>
      </trkpt>
      <trkpt lat="46.81196" lon="-0.57853">
        <ele>233.1</ele>
        <time>2022-10-17T14:49:34Z</time>
      </trkpt>
      <trkpt lat="46.81164" lon="-0.57878">
        <ele>231.8</ele>
        <time>2022-10-17T14:49:34Z</time>
      </trkpt>
      <trkpt lat="46.81133" lon="-0.5791">
        <ele>230.4</ele>
        <time>2022-10-17T14:49:34Z</time>
      </trkpt>
      <trkpt lat="46.81038" lon="-0.57988">
        <ele>225.8</ele>
        <time>2022-10-17T14:49:34Z</time>
      </trkpt>
      <trkpt lat="46.81017" lon="-0.57996">
        <ele>224.6</ele>
        <time>2022-10-17T14:49:34Z</time>
      </trkpt>
      <trkpt lat="46.81001" lon="-0.57987">
        <ele>224</ele>
        <time>2022-10-17T14:49:34Z</time>
      </trkpt>
      <trkpt lat="46.80956" lon="-0.57942">
        <ele>221.4</ele>
        <time>2022-10-17T14:49:34Z</time>
      </trkpt>
      <trkpt lat="46.80939" lon="-0.57936">
        <ele>220.9</ele>
        <time>2022-10-17T14:49:34Z</time>
      </trkpt>
      <trkpt lat="46.80921" lon="-0.57925">
        <ele>220.7</ele>
        <time>2022-10-17T14:49:34Z</time>
      </trkpt>
      <trkpt lat="46.80899" lon="-0.57908">
        <ele>221.3</ele>
        <time>2022-10-17T14:49:34Z</time>
      </trkpt>
      <trkpt lat="46.80859" lon="-0.5788">
        <ele>223.3</ele>
        <time>2022-10-17T14:49:34Z</time>
      </trkpt>
      <trkpt lat="46.80754" lon="-0.57823">
        <ele>226.7</ele>
        <time>2022-10-17T14:49:34Z</time>
      </trkpt>
      <trkpt lat="46.80731" lon="-0.57816">
        <ele>227.5</ele>
        <time>2022-10-17T14:49:34Z</time>
      </trkpt>
      <trkpt lat="46.80703" lon="-0.57795">
        <ele>228.4</ele>
        <time>2022-10-17T14:49:34Z</time>
      </trkpt>
      <trkpt lat="46.80678" lon="-0.57771">
        <ele>229</ele>
        <time>2022-10-17T14:49:34Z</time>
      </trkpt>
      <trkpt lat="46.80664" lon="-0.57763">
        <ele>229</ele>
        <time>2022-10-17T14:49:34Z</time>
      </trkpt>
      <trkpt lat="46.80664" lon="-0.57763">
        <ele>229</ele>
        <time>2022-10-17T14:49:34Z</time>
      </trkpt>
      <trkpt lat="46.80664" lon="-0.57763">
        <ele>229</ele>
        <time>2022-10-17T14:49:34Z</time>
      </trkpt>
      <trkpt lat="46.80597" lon="-0.57908">
        <ele>226</ele>
        <time>2022-10-17T14:49:34Z</time>
      </trkpt>
      <trkpt lat="46.80546" lon="-0.58027">
        <ele>224.7</ele>
        <time>2022-10-17T14:49:34Z</time>
      </trkpt>
      <trkpt lat="46.80506" lon="-0.58115">
        <ele>222.1</ele>
        <time>2022-10-17T14:49:34Z</time>
      </trkpt>
      <trkpt lat="46.80501" lon="-0.58126">
        <ele>221.5</ele>
        <time>2022-10-17T14:49:34Z</time>
      </trkpt>
      <trkpt lat="46.80492" lon="-0.58144">
        <ele>220.7</ele>
        <time>2022-10-17T14:49:34Z</time>
      </trkpt>
      <trkpt lat="46.80467" lon="-0.58173">
        <ele>219.5</ele>
        <time>2022-10-17T14:49:34Z</time>
      </trkpt>
      <trkpt lat="46.8044" lon="-0.58198">
        <ele>217.6</ele>
        <time>2022-10-17T14:49:34Z</time>
      </trkpt>
      <trkpt lat="46.80417" lon="-0.58216">
        <ele>215.3</ele>
        <time>2022-10-17T14:49:34Z</time>
      </trkpt>
      <trkpt lat="46.80394" lon="-0.58236">
        <ele>213.3</ele>
        <time>2022-10-17T14:49:34Z</time>
      </trkpt>
      <trkpt lat="46.80394" lon="-0.58236">
        <ele>213.3</ele>
        <time>2022-10-17T14:49:34Z</time>
      </trkpt>
      <trkpt lat="46.8039" lon="-0.58239">
        <ele>213.1</ele>
        <time>2022-10-17T14:49:34Z</time>
      </trkpt>
      <trkpt lat="46.80373" lon="-0.58208">
        <ele>214</ele>
        <time>2022-10-17T14:49:34Z</time>
      </trkpt>
      <trkpt lat="46.8035" lon="-0.5818">
        <ele>215</ele>
        <time>2022-10-17T14:49:34Z</time>
      </trkpt>
      <trkpt lat="46.80309" lon="-0.58115">
        <ele>216</ele>
        <time>2022-10-17T14:49:34Z</time>
      </trkpt>
      <trkpt lat="46.80292" lon="-0.5808">
        <ele>215.1</ele>
        <time>2022-10-17T14:49:34Z</time>
      </trkpt>
      <trkpt lat="46.80279" lon="-0.58039">
        <ele>214.5</ele>
        <time>2022-10-17T14:49:34Z</time>
      </trkpt>
      <trkpt lat="46.80275" lon="-0.58022">
        <ele>213.9</ele>
        <time>2022-10-17T14:49:34Z</time>
      </trkpt>
      <trkpt lat="46.80271" lon="-0.58004">
        <ele>213.8</ele>
        <time>2022-10-17T14:49:34Z</time>
      </trkpt>
      <trkpt lat="46.80247" lon="-0.57901">
        <ele>212.5</ele>
        <time>2022-10-17T14:49:34Z</time>
      </trkpt>
      <trkpt lat="46.80237" lon="-0.57886">
        <ele>213.1</ele>
        <time>2022-10-17T14:49:34Z</time>
      </trkpt>
      <trkpt lat="46.80233" lon="-0.57882">
        <ele>213.2</ele>
        <time>2022-10-17T14:49:34Z</time>
      </trkpt>
      <trkpt lat="46.80233" lon="-0.57881">
        <ele>213.3</ele>
        <time>2022-10-17T14:49:34Z</time>
      </trkpt>
      <trkpt lat="46.80233" lon="-0.57881">
        <ele>213.3</ele>
        <time>2022-10-17T14:49:34Z</time>
      </trkpt>
      <trkpt lat="46.80238" lon="-0.5787">
        <ele>213.7</ele>
        <time>2022-10-17T14:49:34Z</time>
      </trkpt>
      <trkpt lat="46.80304" lon="-0.57718">
        <ele>217.1</ele>
        <time>2022-10-17T14:49:34Z</time>
      </trkpt>
      <trkpt lat="46.80317" lon="-0.57689">
        <ele>217.7</ele>
        <time>2022-10-17T14:49:34Z</time>
      </trkpt>
      <trkpt lat="46.80314" lon="-0.57686">
        <ele>217.8</ele>
        <time>2022-10-17T14:49:34Z</time>
      </trkpt>
      <trkpt lat="46.80314" lon="-0.57686">
        <ele>217.8</ele>
        <time>2022-10-17T14:49:34Z</time>
      </trkpt>
      <trkpt lat="46.80317" lon="-0.57689">
        <ele>217.7</ele>
        <time>2022-10-17T14:49:34Z</time>
      </trkpt>
      <trkpt lat="46.8032" lon="-0.57681">
        <ele>217.7</ele>
        <time>2022-10-17T14:49:34Z</time>
      </trkpt>
      <trkpt lat="46.80358" lon="-0.57588">
        <ele>218.8</ele>
        <time>2022-10-17T14:49:34Z</time>
      </trkpt>
      <trkpt lat="46.80407" lon="-0.57479">
        <ele>221.5</ele>
        <time>2022-10-17T14:49:34Z</time>
      </trkpt>
      <trkpt lat="46.80405" lon="-0.57477">
        <ele>221.5</ele>
        <time>2022-10-17T14:49:34Z</time>
      </trkpt>
      <trkpt lat="46.80405" lon="-0.57477">
        <ele>221.5</ele>
        <time>2022-10-17T14:49:34Z</time>
      </trkpt>
      <trkpt lat="46.80396" lon="-0.57463">
        <ele>221.3</ele>
        <time>2022-10-17T14:49:34Z</time>
      </trkpt>
      <trkpt lat="46.80344" lon="-0.57397">
        <ele>218.8</ele>
        <time>2022-10-17T14:49:34Z</time>
      </trkpt>
      <trkpt lat="46.80338" lon="-0.57402">
        <ele>218.6</ele>
        <time>2022-10-17T14:49:34Z</time>
      </trkpt>
      <trkpt lat="46.80332" lon="-0.57401">
        <ele>218.5</ele>
        <time>2022-10-17T14:49:34Z</time>
      </trkpt>
      <trkpt lat="46.80288" lon="-0.57347">
        <ele>219.5</ele>
        <time>2022-10-17T14:49:34Z</time>
      </trkpt>
      <trkpt lat="46.8027" lon="-0.57331">
        <ele>219.8</ele>
        <time>2022-10-17T14:49:34Z</time>
      </trkpt>
      <trkpt lat="46.80231" lon="-0.57291">
        <ele>220.5</ele>
        <time>2022-10-17T14:49:34Z</time>
      </trkpt>
      <trkpt lat="46.80222" lon="-0.57275">
        <ele>221</ele>
        <time>2022-10-17T14:49:34Z</time>
      </trkpt>
      <trkpt lat="46.80208" lon="-0.57261">
        <ele>220.5</ele>
        <time>2022-10-17T14:49:34Z</time>
      </trkpt>
      <trkpt lat="46.80173" lon="-0.57218">
        <ele>220.2</ele>
        <time>2022-10-17T14:49:34Z</time>
      </trkpt>
      <trkpt lat="46.80143" lon="-0.57191">
        <ele>219.1</ele>
        <time>2022-10-17T14:49:34Z</time>
      </trkpt>
      <trkpt lat="46.80117" lon="-0.57174">
        <ele>218.2</ele>
        <time>2022-10-17T14:49:34Z</time>
      </trkpt>
      <trkpt lat="46.80074" lon="-0.57131">
        <ele>215.6</ele>
        <time>2022-10-17T14:49:34Z</time>
      </trkpt>
      <trkpt lat="46.80028" lon="-0.57106">
        <ele>215</ele>
        <time>2022-10-17T14:49:34Z</time>
      </trkpt>
      <trkpt lat="46.79999" lon="-0.5707">
        <ele>215.5</ele>
        <time>2022-10-17T14:49:34Z</time>
      </trkpt>
      <trkpt lat="46.79939" lon="-0.57012">
        <ele>218.7</ele>
        <time>2022-10-17T14:49:34Z</time>
      </trkpt>
      <trkpt lat="46.79932" lon="-0.57004">
        <ele>219.3</ele>
        <time>2022-10-17T14:49:34Z</time>
      </trkpt>
      <trkpt lat="46.79932" lon="-0.57004">
        <ele>219.3</ele>
        <time>2022-10-17T14:49:34Z</time>
      </trkpt>
      <trkpt lat="46.79932" lon="-0.57003">
        <ele>219.3</ele>
        <time>2022-10-17T14:49:34Z</time>
      </trkpt>
      <trkpt lat="46.7994" lon="-0.56988">
        <ele>219.6</ele>
        <time>2022-10-17T14:49:34Z</time>
      </trkpt>
      <trkpt lat="46.80018" lon="-0.56874">
        <ele>219.5</ele>
        <time>2022-10-17T14:49:34Z</time>
      </trkpt>
      <trkpt lat="46.80087" lon="-0.56762">
        <ele>218.5</ele>
        <time>2022-10-17T14:49:34Z</time>
      </trkpt>
      <trkpt lat="46.80122" lon="-0.56682">
        <ele>218.1</ele>
        <time>2022-10-17T14:49:34Z</time>
      </trkpt>
      <trkpt lat="46.80187" lon="-0.56572">
        <ele>220.7</ele>
        <time>2022-10-17T14:49:34Z</time>
      </trkpt>
      <trkpt lat="46.80193" lon="-0.56561">
        <ele>220.9</ele>
        <time>2022-10-17T14:49:34Z</time>
      </trkpt>
      <trkpt lat="46.80192" lon="-0.5656">
        <ele>220.9</ele>
        <time>2022-10-17T14:49:34Z</time>
      </trkpt>
      <trkpt lat="46.80192" lon="-0.5656">
        <ele>220.9</ele>
        <time>2022-10-17T14:49:34Z</time>
      </trkpt>
      <trkpt lat="46.80193" lon="-0.56561">
        <ele>220.9</ele>
        <time>2022-10-17T14:49:34Z</time>
      </trkpt>
      <trkpt lat="46.80201" lon="-0.56565">
        <ele>221.1</ele>
        <time>2022-10-17T14:49:34Z</time>
      </trkpt>
      <trkpt lat="46.80224" lon="-0.56584">
        <ele>222</ele>
        <time>2022-10-17T14:49:34Z</time>
      </trkpt>
      <trkpt lat="46.80308" lon="-0.56701">
        <ele>222.8</ele>
        <time>2022-10-17T14:49:34Z</time>
      </trkpt>
      <trkpt lat="46.80324" lon="-0.5673">
        <ele>222.4</ele>
        <time>2022-10-17T14:49:34Z</time>
      </trkpt>
      <trkpt lat="46.80336" lon="-0.56778">
        <ele>223.8</ele>
        <time>2022-10-17T14:49:34Z</time>
      </trkpt>
      <trkpt lat="46.80342" lon="-0.56795">
        <ele>223.6</ele>
        <time>2022-10-17T14:49:34Z</time>
      </trkpt>
      <trkpt lat="46.80382" lon="-0.56845">
        <ele>222.5</ele>
        <time>2022-10-17T14:49:34Z</time>
      </trkpt>
      <trkpt lat="46.804" lon="-0.56876">
        <ele>221.2</ele>
        <time>2022-10-17T14:49:34Z</time>
      </trkpt>
      <trkpt lat="46.80423" lon="-0.5701">
        <ele>219.5</ele>
        <time>2022-10-17T14:49:34Z</time>
      </trkpt>
      <trkpt lat="46.80448" lon="-0.57064">
        <ele>218.9</ele>
        <time>2022-10-17T14:49:34Z</time>
      </trkpt>
      <trkpt lat="46.80471" lon="-0.57103">
        <ele>218.7</ele>
        <time>2022-10-17T14:49:34Z</time>
      </trkpt>
      <trkpt lat="46.80487" lon="-0.57112">
        <ele>218.5</ele>
        <time>2022-10-17T14:49:34Z</time>
      </trkpt>
      <trkpt lat="46.80497" lon="-0.57123">
        <ele>218.9</ele>
        <time>2022-10-17T14:49:34Z</time>
      </trkpt>
      <trkpt lat="46.80522" lon="-0.5716">
        <ele>220.7</ele>
        <time>2022-10-17T14:49:34Z</time>
      </trkpt>
      <trkpt lat="46.80538" lon="-0.57177">
        <ele>220.6</ele>
        <time>2022-10-17T14:49:34Z</time>
      </trkpt>
      <trkpt lat="46.80542" lon="-0.57182">
        <ele>220.5</ele>
        <time>2022-10-17T14:49:34Z</time>
      </trkpt>
      <trkpt lat="46.80542" lon="-0.57182">
        <ele>220.5</ele>
        <time>2022-10-17T14:49:34Z</time>
      </trkpt>
      <trkpt lat="46.80538" lon="-0.57177">
        <ele>220.6</ele>
        <time>2022-10-17T14:49:34Z</time>
      </trkpt>
      <trkpt lat="46.8055" lon="-0.57147">
        <ele>219.5</ele>
        <time>2022-10-17T14:49:34Z</time>
      </trkpt>
      <trkpt lat="46.80687" lon="-0.56822">
        <ele>207.6</ele>
        <time>2022-10-17T14:49:34Z</time>
      </trkpt>
      <trkpt lat="46.80693" lon="-0.56828">
        <ele>207.8</ele>
        <time>2022-10-17T14:49:34Z</time>
      </trkpt>
      <trkpt lat="46.80699" lon="-0.56813">
        <ele>207.2</ele>
        <time>2022-10-17T14:49:34Z</time>
      </trkpt>
      <trkpt lat="46.80874" lon="-0.56397">
        <ele>199.8</ele>
        <time>2022-10-17T14:49:34Z</time>
      </trkpt>
      <trkpt lat="46.80878" lon="-0.56384">
        <ele>199.5</ele>
        <time>2022-10-17T14:49:34Z</time>
      </trkpt>
      <trkpt lat="46.80909" lon="-0.56413">
        <ele>201.6</ele>
        <time>2022-10-17T14:49:34Z</time>
      </trkpt>
      <trkpt lat="46.80918" lon="-0.56421">
        <ele>202.2</ele>
        <time>2022-10-17T14:49:34Z</time>
      </trkpt>
      <trkpt lat="46.80927" lon="-0.56419">
        <ele>202.8</ele>
        <time>2022-10-17T14:49:34Z</time>
      </trkpt>
      <trkpt lat="46.80953" lon="-0.56419">
        <ele>204.4</ele>
        <time>2022-10-17T14:49:34Z</time>
      </trkpt>
      <trkpt lat="46.80955" lon="-0.56419">
        <ele>204.5</ele>
        <time>2022-10-17T14:49:34Z</time>
      </trkpt>
    </trkseg>
  </trk>
</gpx>